• In Hungary
  • List of Countries
  • For 7 days
  • Water Temperature
  • Satellite Maps
  • Weather Map
  • News
  • Weather Widgets
  • user-avatar
    Login

    Hourly Weather Colombo

    Today, 18 December, Monday

    Time Temperature Precipitation Wind Pressure Humidity
    00:00 +26°C° 0 mm 6 mps 760 mmHg 83%
    01:00 +24°C° 0 mm 6 mps 760 mmHg 84%
    02:00 +24°C° 0 mm 6 mps 759 mmHg 85%
    03:00 +24°C° 0 mm 6 mps 759 mmHg 85%
    04:00 +24°C° 0 mm 6 mps 759 mmHg 85%
    05:00 +23°C° 0 mm 7 mps 759 mmHg 85%
    06:00 +26°C° 0 mm 7 mps 760 mmHg 80%
    07:00 +27°C° 0 mm 7 mps 760 mmHg 75%
    08:00 +28°C° 0 mm 7 mps 760 mmHg 70%
    09:00 +30°C° 0 mm 7 mps 760 mmHg 63%
    10:00 +33°C° 0 mm 6 mps 760 mmHg 57%
    11:00 +35°C° 0 mm 6 mps 760 mmHg 50%
    12:00 +35°C° 0 mm 6 mps 759 mmHg 50%
    13:00 +35°C° 0 mm 6 mps 759 mmHg 49%
    14:00 +35°C° 0 mm 6 mps 758 mmHg 48%
    15:00 +34°C° 0 mm 5 mps 758 mmHg 54%
    16:00 +33°C° 0 mm 5 mps 758 mmHg 61%
    17:00 +30°C° 0 mm 5 mps 758 mmHg 67%
    18:00 +29°C° 0 mm 6 mps 759 mmHg 70%
    19:00 +28°C° 0 mm 6 mps 759 mmHg 74%
    20:00 +27°C° 0 mm 6 mps 760 mmHg 77%
    21:00 +26°C° 0 mm 6 mps 760 mmHg 78%
    22:00 +26°C° 0 mm 6 mps 760 mmHg 80%
    23:00 +26°C° 0 mm 6 mps 760 mmHg 81%

    Tomorrow, 19 December, Tuesday

    Time Temperature Precipitation Wind Pressure Humidity
    00:00 +24°C° 0 mm 6 mps 759 mmHg 82%
    01:00 +24°C° 0 mm 6 mps 759 mmHg 82%
    02:00 +24°C° 0 mm 6 mps 759 mmHg 83%
    03:00 +24°C° 0 mm 6 mps 759 mmHg 83%
    04:00 +23°C° 0 mm 6 mps 759 mmHg 83%
    05:00 +23°C° 0 mm 5 mps 759 mmHg 84%
    06:00 +25°C° 0 mm 5 mps 759 mmHg 80%
    07:00 +27°C° 0 mm 5 mps 760 mmHg 76%
    08:00 +28°C° 0 mm 5 mps 760 mmHg 71%
    09:00 +29°C° 0 mm 5 mps 760 mmHg 67%
    10:00 +32°C° 0 mm 5 mps 760 mmHg 62%
    11:00 +34°C° 0 mm 5 mps 760 mmHg 57%
    12:00 +34°C° 0.1 mm 5 mps 759 mmHg 59%
    13:00 +34°C° 0.1 mm 5 mps 758 mmHg 61%
    14:00 +34°C° 0.1 mm 5 mps 757 mmHg 62%
    15:00 +32°C° 0.3 mm 6 mps 757 mmHg 70%
    16:00 +30°C° 0.3 mm 6 mps 757 mmHg 78%
    17:00 +29°C° 0.3 mm 6 mps 757 mmHg 86%
    18:00 +28°C° 0.2 mm 6 mps 758 mmHg 88%
    19:00 +27°C° 0.2 mm 6 mps 759 mmHg 89%
    20:00 +27°C° 0.2 mm 5 mps 759 mmHg 91%
    21:00 +27°C° 0 mm 5 mps 759 mmHg 92%
    22:00 +26°C° 0 mm 5 mps 759 mmHg 93%
    23:00 +26°C° 0 mm 5 mps 759 mmHg 93%

    Day after tomorrow, 20 December, Wednesday

    Time Temperature Precipitation Wind Pressure Humidity
    00:00 +26°C° 0 mm 4 mps 759 mmHg 93%
    01:00 +26°C° 0 mm 4 mps 758 mmHg 93%
    02:00 +26°C° 0 mm 4 mps 758 mmHg 94%
    03:00 +26°C° 0 mm 4 mps 758 mmHg 93%
    04:00 +26°C° 0 mm 4 mps 758 mmHg 93%
    05:00 +25°C° 0 mm 4 mps 758 mmHg 93%
    06:00 +27°C° 0 mm 4 mps 759 mmHg 87%
    07:00 +28°C° 0 mm 4 mps 759 mmHg 82%
    08:00 +29°C° 0 mm 4 mps 760 mmHg 77%
    09:00 +31°C° 0.1 mm 3 mps 760 mmHg 71%
    10:00 +33°C° 0.1 mm 3 mps 760 mmHg 65%
    11:00 +35°C° 0.1 mm 3 mps 759 mmHg 59%
    12:00 +34°C° 1.6 mm 3 mps 759 mmHg 65%
    13:00 +33°C° 1.6 mm 3 mps 758 mmHg 71%
    14:00 +31°C° 1.6 mm 3 mps 757 mmHg 77%
    15:00 +30°C° 1.8 mm 3 mps 757 mmHg 81%
    16:00 +29°C° 1.8 mm 3 mps 757 mmHg 85%
    17:00 +28°C° 1.8 mm 3 mps 758 mmHg 89%
    18:00 +28°C° 0.6 mm 3 mps 758 mmHg 90%
    19:00 +27°C° 0.6 mm 3 mps 759 mmHg 90%
    20:00 +27°C° 0.6 mm 2 mps 760 mmHg 91%
    21:00 +27°C° 0.1 mm 3 mps 760 mmHg 91%
    22:00 +27°C° 0.1 mm 3 mps 759 mmHg 91%
    23:00 +27°C° 0.1 mm 3 mps 759 mmHg 91%

    21 December, Thursday

    Time Temperature Precipitation Wind Pressure Humidity
    00:00 +26°C° 0.1 mm 3 mps 759 mmHg 91%
    01:00 +26°C° 0.1 mm 3 mps 758 mmHg 92%
    02:00 +26°C° 0.1 mm 3 mps 758 mmHg 92%
    03:00 +26°C° 0 mm 3 mps 758 mmHg 92%
    04:00 +26°C° 0 mm 3 mps 758 mmHg 91%
    05:00 +26°C° 0 mm 3 mps 758 mmHg 91%
    06:00 +27°C° 0 mm 3 mps 759 mmHg 88%
    07:00 +27°C° 0 mm 3 mps 759 mmHg 86%
    08:00 +28°C° 0 mm 3 mps 760 mmHg 83%
    09:00 +30°C° 0.1 mm 3 mps 760 mmHg 76%
    10:00 +31°C° 0.1 mm 3 mps 760 mmHg 70%
    11:00 +33°C° 0.1 mm 3 mps 759 mmHg 64%
    12:00 +33°C° 0.5 mm 3 mps 759 mmHg 65%
    13:00 +33°C° 0.5 mm 3 mps 758 mmHg 66%
    14:00 +33°C° 0.5 mm 3 mps 757 mmHg 67%
    15:00 +31°C° 1.7 mm 3 mps 757 mmHg 73%
    16:00 +29°C° 1.7 mm 3 mps 757 mmHg 79%
    17:00 +28°C° 1.7 mm 3 mps 757 mmHg 85%
    18:00 +28°C° 0.2 mm 3 mps 758 mmHg 87%
    19:00 +27°C° 0.2 mm 3 mps 759 mmHg 88%
    20:00 +27°C° 0.2 mm 3 mps 759 mmHg 89%
    21:00 +27°C° 0.4 mm 3 mps 759 mmHg 90%
    22:00 +27°C° 0.4 mm 3 mps 759 mmHg 91%
    23:00 +26°C° 0.4 mm 3 mps 759 mmHg 92%

    22 December, Friday

    Time Temperature Precipitation Wind Pressure Humidity
    00:00 +26°C° 1 mm 3 mps 758 mmHg 92%
    01:00 +26°C° 1 mm 3 mps 758 mmHg 91%
    02:00 +26°C° 1 mm 3 mps 757 mmHg 91%
    03:00 +26°C° 0.5 mm 3 mps 757 mmHg 91%
    04:00 +26°C° 0.5 mm 4 mps 757 mmHg 92%
    05:00 +26°C° 0.5 mm 4 mps 758 mmHg 92%
    06:00 +26°C° 0.2 mm 4 mps 758 mmHg 90%
    07:00 +27°C° 0.2 mm 4 mps 759 mmHg 88%
    08:00 +27°C° 0.2 mm 4 mps 760 mmHg 87%
    09:00 +28°C° 0.3 mm 4 mps 759 mmHg 84%
    10:00 +28°C° 0.3 mm 4 mps 759 mmHg 81%
    11:00 +29°C° 0.3 mm 4 mps 759 mmHg 78%
    12:00 +29°C° 0.2 mm 4 mps 758 mmHg 77%
    13:00 +29°C° 0.2 mm 4 mps 758 mmHg 76%
    14:00 +29°C° 0.2 mm 4 mps 757 mmHg 75%
    15:00 +28°C° 0.1 mm 4 mps 757 mmHg 78%
    16:00 +28°C° 0.1 mm 4 mps 757 mmHg 81%
    17:00 +27°C° 0.1 mm 5 mps 757 mmHg 83%
    18:00 +27°C° 0 mm 5 mps 758 mmHg 84%
    19:00 +27°C° 0 mm 5 mps 758 mmHg 85%
    20:00 +26°C° 0 mm 5 mps 759 mmHg 86%
    21:00 +26°C° 0 mm 5 mps 759 mmHg 86%
    22:00 +26°C° 0 mm 4 mps 759 mmHg 86%
    23:00 +26°C° 0 mm 4 mps 758 mmHg 86%

    23 December, Saturday

    Time Temperature Precipitation Wind Pressure Humidity
    00:00 +26°C° 0 mm 4 mps 758 mmHg 87%
    01:00 +26°C° 0 mm 4 mps 757 mmHg 87%
    02:00 +25°C° 0 mm 4 mps 757 mmHg 87%
    03:00 +25°C° 0 mm 3 mps 757 mmHg 88%
    04:00 +25°C° 0 mm 3 mps 757 mmHg 88%
    05:00 +25°C° 0 mm 3 mps 757 mmHg 89%
    06:00 +26°C° 0 mm 3 mps 757 mmHg 85%
    07:00 +27°C° 0 mm 3 mps 758 mmHg 81%
    08:00 +28°C° 0 mm 2 mps 758 mmHg 77%
    09:00 +30°C° 0 mm 2 mps 758 mmHg 71%
    10:00 +31°C° 0 mm 2 mps 758 mmHg 65%
    11:00 +34°C° 0 mm 2 mps 757 mmHg 59%
    12:00 +34°C° 0.1 mm 3 mps 757 mmHg 60%
    13:00 +34°C° 0.1 mm 3 mps 756 mmHg 60%
    14:00 +34°C° 0.1 mm 3 mps 755 mmHg 61%
    15:00 +33°C° 0.7 mm 3 mps 755 mmHg 69%
    16:00 +30°C° 0.7 mm 3 mps 755 mmHg 77%
    17:00 +29°C° 0.7 mm 3 mps 756 mmHg 85%
    18:00 +28°C° 0.5 mm 3 mps 756 mmHg 87%
    19:00 +28°C° 0.5 mm 2 mps 757 mmHg 88%
    20:00 +27°C° 0.5 mm 2 mps 757 mmHg 90%
    21:00 +27°C° 0.1 mm 2 mps 757 mmHg 91%
    22:00 +27°C° 0.1 mm 2 mps 757 mmHg 92%
    23:00 +27°C° 0.1 mm 2 mps 757 mmHg 93%
    Show more